TVF6329 DTTA-LFPO

Flight info

Callsign TVF6329
Flight time N/A
Altitude 34000
Route TOBIB3C TOBIB UA725 OSMAR DCT PIRIX DCT UPDUT DCT CORSI DCT OMEDA DCT MERLU DCT PIGOS DCT BARSO DCT OKTET DCT GIPNO DCT BULOL DCT IDAVO DCT ARDOL ARDOL9W
Aircraft B738/M-SDE2E3FGHIRWXY/LB1

Departure

Time N/A
Airport Tunis Carthage International Airport (DTTA)

Arrival

Time 2026-05-03 21:31
Airport Paris-Orly Airport (LFPO)
Time Latitude Longitude Altitude Speed Heading
2026-05-03 20:15 42.41331 8.30006 34110 ft 423 kts 326°
2026-05-03 20:15 42.46449 8.26087 34106 ft 423 kts 326°
2026-05-03 20:16 42.51583 8.22198 34107 ft 423 kts 327°
2026-05-03 20:16 42.56727 8.18321 34112 ft 423 kts 327°
2026-05-03 20:17 42.61871 8.14441 34113 ft 423 kts 327°
2026-05-03 20:17 42.67013 8.10555 34115 ft 423 kts 326°
2026-05-03 20:18 42.72153 8.06663 34116 ft 423 kts 326°
2026-05-03 20:18 42.77289 8.02765 34117 ft 423 kts 326°
2026-05-03 20:19 42.82422 7.98863 34115 ft 423 kts 326°
2026-05-03 20:19 42.87554 7.94953 34116 ft 423 kts 326°
2026-05-03 20:20 42.92685 7.91037 34116 ft 423 kts 326°
2026-05-03 20:20 42.97815 7.87113 34119 ft 423 kts 326°
2026-05-03 20:21 43.02947 7.83181 34121 ft 423 kts 326°
2026-05-03 20:21 43.08078 7.79243 34124 ft 423 kts 326°
2026-05-03 20:22 43.12340 7.75960 34121 ft 423 kts 326°
2026-05-03 20:22 43.17467 7.71998 34121 ft 423 kts 326°
2026-05-03 20:23 43.22597 7.68025 34123 ft 424 kts 326°
2026-05-03 20:23 43.27725 7.64048 34124 ft 424 kts 326°
2026-05-03 20:24 43.32858 7.60059 34122 ft 424 kts 325°
2026-05-03 20:24 43.37988 7.56064 34128 ft 424 kts 325°
2026-05-03 20:25 43.41386 7.53414 34126 ft 424 kts 325°
2026-05-03 20:25 43.45559 7.50154 34129 ft 424 kts 325°
2026-05-03 20:26 43.50685 7.46142 34131 ft 424 kts 325°
2026-05-03 20:26 43.55803 7.42129 34129 ft 423 kts 325°
2026-05-03 20:27 43.60888 7.38135 34131 ft 423 kts 325°
2026-05-03 20:27 43.65914 7.33871 34133 ft 420 kts 321°
2026-05-03 20:28 43.70725 7.29408 34129 ft 419 kts 321°
2026-05-03 20:28 43.75596 7.24880 34132 ft 419 kts 321°
2026-05-03 20:29 43.80421 7.20431 34139 ft 420 kts 321°
2026-05-03 20:29 43.85292 7.15950 34140 ft 421 kts 321°
2026-05-03 20:30 43.90174 7.11455 34143 ft 422 kts 321°
2026-05-03 20:30 43.95063 7.06943 34140 ft 423 kts 321°
2026-05-03 20:31 43.99961 7.02412 34155 ft 423 kts 321°
2026-05-03 20:31 44.04860 6.97871 34156 ft 424 kts 321°
2026-05-03 20:32 44.09763 6.93319 34142 ft 423 kts 321°
2026-05-03 20:32 44.14659 6.88762 34142 ft 424 kts 321°
2026-05-03 20:33 44.19564 6.84187 34146 ft 425 kts 321°
2026-05-03 20:33 44.24478 6.79595 34141 ft 425 kts 321°
2026-05-03 20:34 44.29397 6.74987 34129 ft 426 kts 321°
2026-05-03 20:34 44.34319 6.70367 34137 ft 426 kts 321°
2026-05-03 20:35 44.39241 6.65738 34137 ft 426 kts 321°
2026-05-03 20:35 44.44166 6.61095 34129 ft 427 kts 321°
2026-05-03 20:36 44.49079 6.56457 34123 ft 425 kts 321°
2026-05-03 20:36 44.53977 6.51819 34120 ft 424 kts 321°
2026-05-03 20:37 44.58850 6.47193 34100 ft 422 kts 321°
2026-05-03 20:37 44.63692 6.42588 34119 ft 419 kts 321°
2026-05-03 20:38 44.68509 6.37994 34132 ft 418 kts 321°
2026-05-03 20:38 44.73315 6.33402 34115 ft 417 kts 321°
2026-05-03 20:39 44.78109 6.28812 34107 ft 417 kts 321°
2026-05-03 20:39 44.82907 6.24210 34097 ft 416 kts 321°
2026-05-03 20:40 44.87690 6.19613 34100 ft 416 kts 321°
2026-05-03 20:40 44.92462 6.15016 34077 ft 415 kts 321°
2026-05-03 20:41 44.97244 6.10400 34095 ft 417 kts 321°
2026-05-03 20:41 45.02014 6.05785 34086 ft 420 kts 321°
2026-05-03 20:42 45.06851 6.01099 34068 ft 422 kts 321°
2026-05-03 20:42 45.11699 5.96392 34068 ft 422 kts 321°
2026-05-03 20:43 45.16546 5.91674 34068 ft 423 kts 321°
2026-05-03 20:43 45.21410 5.86931 34046 ft 424 kts 321°
2026-05-03 20:44 45.26266 5.82186 34048 ft 423 kts 321°
2026-05-03 20:44 45.31109 5.77443 34062 ft 422 kts 320°
2026-05-03 20:45 45.35939 5.72702 34067 ft 422 kts 320°
2026-05-03 20:45 45.40772 5.67948 34059 ft 422 kts 320°
2026-05-03 20:46 45.45590 5.63200 34060 ft 421 kts 320°
2026-05-03 20:46 45.50400 5.58448 34065 ft 420 kts 320°
2026-05-03 20:47 45.55200 5.53697 34062 ft 420 kts 320°
2026-05-03 20:47 45.60085 5.49109 34057 ft 421 kts 322°
2026-05-03 20:48 45.65086 5.44727 34043 ft 422 kts 323°
2026-05-03 20:48 45.70082 5.40322 34043 ft 422 kts 322°
2026-05-03 20:49 45.75061 5.35878 34057 ft 422 kts 322°
2026-05-03 20:49 45.80038 5.31407 34040 ft 423 kts 322°
2026-05-03 20:50 45.84992 5.26946 34037 ft 423 kts 322°
2026-05-03 20:50 45.89979 5.22448 34049 ft 423 kts 322°
2026-05-03 20:51 45.94964 5.17941 34040 ft 423 kts 322°
2026-05-03 20:51 45.99939 5.13434 34034 ft 423 kts 322°
2026-05-03 20:52 46.04938 5.08968 34018 ft 425 kts 326°
2026-05-03 20:52 46.10357 5.05438 34016 ft 428 kts 331°
2026-05-03 20:53 46.15829 5.02050 34016 ft 427 kts 330°
2026-05-03 20:53 46.21270 4.98599 34017 ft 427 kts 330°
2026-05-03 20:54 46.26699 4.95125 34014 ft 427 kts 330°
2026-05-03 20:54 46.34845 4.89896 34012 ft 427 kts 330°
2026-05-03 20:55 46.40283 4.86396 34008 ft 428 kts 330°
2026-05-03 20:55 46.45723 4.82887 34010 ft 428 kts 330°
2026-05-03 20:56 46.51174 4.79363 34017 ft 429 kts 330°
2026-05-03 20:56 46.56633 4.75826 34005 ft 430 kts 330°
2026-05-03 20:57 46.62107 4.72271 34007 ft 431 kts 330°
2026-05-03 20:57 46.67583 4.68707 34009 ft 432 kts 330°
2026-05-03 20:58 46.73070 4.65129 34010 ft 432 kts 330°
2026-05-03 20:58 46.78565 4.61553 34004 ft 433 kts 331°
2026-05-03 20:59 46.84077 4.57994 33993 ft 429 kts 331°
2026-05-03 20:59 46.89446 4.54529 33996 ft 418 kts 330°
2026-05-03 21:00 46.92962 4.52246 34014 ft 418 kts 330°
2026-05-03 21:00 46.97425 4.49338 33577 ft 417 kts 330°
2026-05-03 21:00 47.00058 4.47624 33192 ft 412 kts 330°
2026-05-03 21:01 47.02623 4.45954 32860 ft 407 kts 330°
2026-05-03 21:01 47.05208 4.44266 32474 ft 405 kts 330°
2026-05-03 21:01 47.07768 4.42594 32119 ft 401 kts 330°
2026-05-03 21:01 47.10311 4.40930 31762 ft 398 kts 330°
2026-05-03 21:02 47.12831 4.39279 31413 ft 395 kts 330°
2026-05-03 21:02 47.15336 4.37636 31064 ft 393 kts 330°
2026-05-03 21:02 47.17823 4.36003 30720 ft 390 kts 330°
2026-05-03 21:02 47.20291 4.34381 30372 ft 388 kts 330°
2026-05-03 21:03 47.22747 4.32765 30029 ft 385 kts 330°
2026-05-03 21:03 47.25187 4.31159 29631 ft 382 kts 330°
2026-05-03 21:03 47.27602 4.29568 29280 ft 378 kts 330°
2026-05-03 21:03 47.29990 4.27993 28923 ft 374 kts 330°
2026-05-03 21:04 47.32351 4.26433 28571 ft 370 kts 329°
2026-05-03 21:04 47.34693 4.24884 28216 ft 367 kts 329°
2026-05-03 21:04 47.37009 4.23351 27866 ft 363 kts 329°
2026-05-03 21:04 47.39307 4.21827 27532 ft 361 kts 329°
2026-05-03 21:05 47.41586 4.20316 27198 ft 358 kts 329°
2026-05-03 21:05 47.43848 4.18815 26856 ft 355 kts 329°
2026-05-03 21:05 47.46099 4.17320 26518 ft 353 kts 329°
2026-05-03 21:05 47.48333 4.15836 26192 ft 351 kts 329°
2026-05-03 21:06 47.50553 4.14361 25867 ft 349 kts 329°
2026-05-03 21:06 47.52762 4.12891 25550 ft 348 kts 330°
2026-05-03 21:06 47.54970 4.11419 25227 ft 348 kts 330°
2026-05-03 21:06 47.57182 4.09942 24917 ft 351 kts 330°
2026-05-03 21:07 47.59439 4.08429 24595 ft 361 kts 330°
2026-05-03 21:07 47.61745 4.06884 24250 ft 366 kts 330°
2026-05-03 21:07 47.64065 4.05334 23886 ft 365 kts 330°
2026-05-03 21:07 47.66370 4.03795 23532 ft 363 kts 330°
2026-05-03 21:08 47.68674 4.02253 23128 ft 362 kts 331°
2026-05-03 21:08 47.70962 4.00718 22758 ft 360 kts 331°
2026-05-03 21:08 47.73240 3.99189 22397 ft 358 kts 331°
2026-05-03 21:08 47.75500 3.97671 22047 ft 355 kts 331°
2026-05-03 21:09 47.77745 3.96161 21714 ft 353 kts 330°
2026-05-03 21:09 47.79781 3.94252 21344 ft 341 kts 311°
2026-05-03 21:09 47.80800 3.92526 21135 ft 332 kts 301°
2026-05-03 21:09 47.82528 3.88755 20694 ft 328 kts 298°
2026-05-03 21:10 47.83346 3.86872 20477 ft 327 kts 297°
2026-05-03 21:10 47.84572 3.84038 20141 ft 325 kts 298°
2026-05-03 21:10 47.86196 3.80312 19714 ft 323 kts 298°
2026-05-03 21:10 47.87424 3.77519 19389 ft 322 kts 298°
2026-05-03 21:11 47.88650 3.74743 19066 ft 320 kts 299°
2026-05-03 21:11 47.89478 3.72873 18845 ft 319 kts 299°
2026-05-03 21:11 47.90700 3.70115 18524 ft 318 kts 299°
2026-05-03 21:11 47.92310 3.66481 18065 ft 317 kts 299°
2026-05-03 21:12 47.93130 3.64630 17835 ft 316 kts 299°
2026-05-03 21:12 47.94337 3.61906 17483 ft 314 kts 299°
2026-05-03 21:12 47.95535 3.59196 17153 ft 312 kts 299°
2026-05-03 21:12 47.96727 3.56553 16832 ft 311 kts 303°
2026-05-03 21:13 47.98164 3.54078 16516 ft 311 kts 309°
2026-05-03 21:13 47.99686 3.51791 16198 ft 310 kts 311°
2026-05-03 21:13 48.01203 3.49568 15884 ft 308 kts 311°
2026-05-03 21:13 48.02725 3.47326 15576 ft 307 kts 311°
2026-05-03 21:14 48.04230 3.45081 15263 ft 305 kts 310°
2026-05-03 21:14 48.05724 3.42830 14955 ft 304 kts 310°
2026-05-03 21:14 48.07204 3.40584 14643 ft 303 kts 310°
2026-05-03 21:14 48.08675 3.38343 14332 ft 301 kts 310°
2026-05-03 21:15 48.10136 3.36109 14028 ft 300 kts 310°
2026-05-03 21:15 48.11594 3.33875 13709 ft 299 kts 309°
2026-05-03 21:15 48.13047 3.31644 13365 ft 299 kts 309°
2026-05-03 21:15 48.14493 3.29423 13038 ft 297 kts 309°
2026-05-03 21:16 48.15933 3.27210 12716 ft 296 kts 309°
2026-05-03 21:16 48.17364 3.25009 12409 ft 294 kts 309°
2026-05-03 21:16 48.18786 3.22820 12099 ft 293 kts 309°
2026-05-03 21:16 48.20203 3.20637 11797 ft 291 kts 309°
2026-05-03 21:17 48.21610 3.18469 11495 ft 290 kts 310°
2026-05-03 21:17 48.23012 3.16312 11197 ft 288 kts 310°
2026-05-03 21:17 48.24410 3.14160 10897 ft 287 kts 310°
2026-05-03 21:17 48.25799 3.12019 10601 ft 286 kts 310°
2026-05-03 21:18 48.27185 3.09881 10325 ft 284 kts 310°
2026-05-03 21:18 48.28538 3.07798 10340 ft 275 kts 310°
2026-05-03 21:18 48.29875 3.05740 10317 ft 278 kts 310°
2026-05-03 21:18 48.31239 3.03625 10330 ft 285 kts 310°
2026-05-03 21:19 48.32620 3.01482 10334 ft 286 kts 310°
2026-05-03 21:19 48.33999 2.99344 10330 ft 284 kts 310°
2026-05-03 21:19 48.35404 2.97249 10319 ft 286 kts 318°
2026-05-03 21:19 48.37203 2.95926 10315 ft 293 kts 342°
2026-05-03 21:20 48.39170 2.95287 10335 ft 294 kts 346°
2026-05-03 21:20 48.41210 2.94733 10325 ft 295 kts 347°
2026-05-03 21:20 48.43221 2.94198 10164 ft 299 kts 347°
2026-05-03 21:20 48.45319 2.93642 9720 ft 306 kts 347°
2026-05-03 21:21 48.47434 2.93078 9205 ft 310 kts 347°
2026-05-03 21:21 48.49544 2.92512 8950 ft 305 kts 347°
2026-05-03 21:21 48.51613 2.91956 8522 ft 306 kts 347°
2026-05-03 21:21 48.53721 2.91388 8314 ft 300 kts 347°
2026-05-03 21:22 48.55756 2.90841 8095 ft 293 kts 347°
2026-05-03 21:22 48.57727 2.90315 7813 ft 284 kts 347°
2026-05-03 21:22 48.59626 2.89809 7462 ft 279 kts 347°
2026-05-03 21:22 48.61534 2.89302 7131 ft 278 kts 347°
2026-05-03 21:23 48.63445 2.88791 6788 ft 280 kts 347°
2026-05-03 21:23 48.65364 2.88276 6462 ft 281 kts 347°
2026-05-03 21:23 48.67290 2.87756 6102 ft 282 kts 347°
2026-05-03 21:23 48.69228 2.87227 5703 ft 284 kts 347°
2026-05-03 21:24 48.71179 2.86688 5330 ft 286 kts 347°
2026-05-03 21:24 48.73101 2.86155 5278 ft 274 kts 347°
2026-05-03 21:24 48.74957 2.85643 5027 ft 271 kts 347°
2026-05-03 21:24 48.76793 2.85008 4642 ft 271 kts 334°
2026-05-03 21:25 48.78290 2.83358 4315 ft 263 kts 304°
2026-05-03 21:25 48.78997 2.80956 4322 ft 242 kts 275°
2026-05-03 21:25 48.78986 2.78461 4333 ft 227 kts 263°
2026-05-03 21:25 48.78843 2.76133 4309 ft 216 kts 262°
2026-05-03 21:26 48.78692 2.73909 4295 ft 211 kts 262°
2026-05-03 21:26 48.78540 2.71706 4294 ft 209 kts 262°
2026-05-03 21:26 48.78352 2.69480 4052 ft 217 kts 253°
2026-05-03 21:26 48.77792 2.67377 3827 ft 215 kts 248°
2026-05-03 21:27 48.77317 2.65269 3604 ft 212 kts 252°
2026-05-03 21:27 48.76932 2.63121 3371 ft 205 kts 255°
2026-05-03 21:27 48.76599 2.61071 3169 ft 196 kts 254°
2026-05-03 21:27 48.76251 2.59127 2897 ft 184 kts 253°
2026-05-03 21:28 48.75921 2.57343 2679 ft 168 kts 253°
2026-05-03 21:28 48.75608 2.55668 2468 ft 163 kts 253°
2026-05-03 21:28 48.75297 2.53998 2256 ft 166 kts 253°
2026-05-03 21:28 48.74985 2.52314 2036 ft 166 kts 253°
2026-05-03 21:29 48.74678 2.50661 1803 ft 158 kts 253°
2026-05-03 21:29 48.74391 2.49115 1582 ft 147 kts 253°
2026-05-03 21:29 48.74127 2.47690 1468 ft 138 kts 253°
2026-05-03 21:29 48.73860 2.46248 1240 ft 143 kts 252°
2026-05-03 21:30 48.73589 2.44784 1052 ft 145 kts 253°
2026-05-03 21:30 48.73317 2.43313 859 ft 145 kts 252°
2026-05-03 21:30 48.73045 2.41846 657 ft 144 kts 252°
2026-05-03 21:30 48.72773 2.40393 420 ft 143 kts 253°
2026-05-03 21:31 48.72508 2.38952 301 ft 141 kts 253°
2026-05-03 21:31 48.72243 2.37531 299 ft 132 kts 254°
2026-05-03 21:31 48.72061 2.36556 300 ft 60 kts 255°
2026-05-03 21:31 48.71993 2.36149 298 ft 31 kts 256°
2026-05-03 21:32 48.71969 2.35926 296 ft 17 kts 279°
2026-05-03 21:32 48.72020 2.35772 299 ft 16 kts 298°
2026-05-03 21:32 48.72055 2.35696 300 ft 0 kts 315°
2026-05-03 21:34 48.72056 2.35694 300 ft 1 kts 315°
2026-05-03 21:34 48.72076 2.35671 299 ft 7 kts 333°
2026-05-03 21:34 48.72156 2.35628 299 ft 16 kts 346°
2026-05-03 21:35 48.72274 2.35611 296 ft 18 kts 20°
2026-05-03 21:35 48.72336 2.35759 299 ft 17 kts 73°
2026-05-03 21:35 48.72367 2.35928 298 ft 16 kts 75°
2026-05-03 21:35 48.72397 2.36091 296 ft 16 kts 75°
2026-05-03 21:36 48.72425 2.36248 297 ft 15 kts 75°
2026-05-03 21:36 48.72453 2.36398 296 ft 15 kts 74°
2026-05-03 21:36 48.72482 2.36552 296 ft 16 kts 74°
2026-05-03 21:36 48.72510 2.36708 296 ft 15 kts 75°
2026-05-03 21:37 48.72510 2.36799 297 ft 1 kts 149°
2026-05-03 21:37 48.72501 2.36798 299 ft 3 kts 191°
2026-05-03 21:37 48.72474 2.36788 294 ft 4 kts 193°
2026-05-03 21:37 48.72457 2.36782 294 ft 2 kts 193°
2026-05-03 21:38 48.72455 2.36781 294 ft 0 kts 194°